Regional Weather Roundup
Issued by NWS

Home | Current Version | Previous Version | Graphics & Text | Print | Product List | Glossary On
Versions: 1 2 3 4 5 6 7 8 9 10 11 12 13 14 15 16 17 18 19 20 21 22 23 24 25 26 27 28 29 30 31 32 33 34 35 36 37 38 39 40 41 42 43 44 45 46 47 48 49 50
000
ASUS45 KPSR 011300
RWRAZ

PRELIMINARY ARIZONA REGIONAL HOURLY WEATHER ROUNDUP
NATIONAL WEATHER SERVICE PHOENIX AZ
600 AM MST MON SEP 01 2014

NOTE: FAIR INDICATES FEW OR NO CLOUDS BELOW 12,000 FEET WITH NO
SIGNIFICANT WEATHER AND/OR OBSTRUCTIONS TO VISIBILITY.

AZZ001>003-036-011400-
NORTHWEST ARIZONA

CITY           SKY/WX    TMP DP  RH WIND       PRES   REMARKS
KINGMAN        CLEAR     71  47  42 SE10      29.95R
$$

AZZ004>008-015-016-018-011400-
NORTH CENTRAL ARIZONA

CITY           SKY/WX    TMP DP  RH WIND       PRES   REMARKS
GRAND CANYON   CLEAR     46  39  76 VRB6      30.22
WILLIAMS       CLEAR     52  41  66 S8        30.28R
PRESCOTT       CLEAR     58  45  62 S5        30.10R
FLAGSTAFF      CLEAR     49  41  74 CALM      30.25R
PAYSON         CLEAR     61  41  48 CALM      30.13R
PAGE           CLEAR     70  33  25 NW5       30.00R
$$

AZZ009>014-017-011400-
NORTHEAST ARIZONA

CITY           SKY/WX    TMP DP  RH WIND       PRES   REMARKS
WINSLOW        NOT AVBL
SAINT JOHNS    CLEAR     58  42  55 S5        30.16R
WINDOW ROCK    CLEAR     61  38  42 W6        30.21
$$

AZZ023-011400-
GREATER PHOENIX AREA

CITY           SKY/WX    TMP DP  RH WIND       PRES   REMARKS
PHOENIX        PTCLDY    81  48  31 E7        29.81R
GLENDALE       PTCLDY    79  52  38 CALM      29.82
LUKE AFB       NOT AVBL
DEER VALLEY    CLEAR     81  41  24 E6        29.83R
SCOTTSDALE     CLEAR     81  45  28 CALM      29.85R
MESA-FALCON    CLEAR     81  43  26 N5        29.84
MESA-GATEWAY   CLEAR     73  46  38 SE5       29.86R
CHANDLER       PTCLDY    77  50  38 N6        29.83
$$

AZZ027-028-011400-
SOUTHWEST MARICOPA COUNTY AND PINAL COUNTY

CITY           SKY/WX    TMP DP  RH WIND       PRES   REMARKS
CASA GRANDE    CLEAR     73  39  29 CALM      29.86R
$$

AZZ503-504-507>509-011400-
SOUTHEAST ARIZONA

CITY           SKY/WX    TMP DP  RH WIND       PRES   REMARKS
TUCSON         CLEAR     73  47  39 SE8       29.96R
DAVIS-MONTHAN  CLEAR     73  46  38 SE6       29.95R
RYAN FIELD       N/A     66  48  52 SW3       29.95
NOGALES        CLEAR     59  48  67 CALM      30.05R
SIERRA VISTA   CLEAR     65  51  60 CALM      30.10R
SAFFORD        CLEAR     65  41  41 SE5       29.98R
$$

AZZ020-021-025-026-031-011400-
SOUTHWEST ARIZONA

CITY           SKY/WX    TMP DP  RH WIND       PRES   REMARKS
YUMA           NOT AVBL
$$

CAZ031-033-041-043-047-048-061-011400-
SOUTHERN CALIFORNIA

CITY           SKY/WX    TMP DP  RH WIND       PRES   REMARKS
DOWNTOWN L.A.  CLOUDY    71  64  78 CALM      29.81R
L.A. AIRPORT   CLOUDY    71  64  78 E6        29.81S
SAN DIEGO      MOCLDY    69  62  78 SE8       29.83R
BURBANK        MOCLDY    69  63  81 NE5       29.82S
ONTARIO        PTCLDY    67  63  87 S3        29.83R
RIVERSIDE      CLEAR     65  61  87 CALM      29.83R
PALM SPRINGS   CLEAR     78  53  41 S3        29.73R
IMPERIAL       CLEAR     77  49  37 S3        29.68R
BLYTHE         CLEAR     84  58  40 S8        29.71R
$$

NVZ020-UTZ003-011400-
SOUTHERN NEVADA-UTAH

CITY           SKY/WX    TMP DP  RH WIND       PRES   REMARKS
LAS VEGAS      NOT AVBL
SALT LAKE CITY CLEAR     58  38  47 E7        30.03R
$$

NMZ009-TXZ055-011400-
NEW MEXICO-WEST TEXAS

CITY           SKY/WX    TMP DP  RH WIND       PRES   REMARKS
ALBUQUERQUE    PTCLDY    63  40  42 SE9       30.11R
EL PASO        CLEAR     73  44  35 S6        30.00R
$$


........................KEY........................
SKY/WX - SKY CONDITION/WEATHER
TMP    - TEMPERATURE IN FAHRENHEIT
DP     - DEW POINT IN FAHRENHEIT
RH     - RELATIVE HUMIDITY IN PERCENT
WIND   - DIRECTION AND SPEED IN MILES PER HOUR (MPH)
VRB    - VARIABLE WIND DIRECTION
PRES   - MEAN SEA LEVEL PRESSURE IN INCHES OF MERCURY
         F - FALLING PRESSURE   R - RISING PRESSURE
         S - STEADY PRESSURE
VSB    - VISIBILITY IN MILES
HX     - HEAT INDEX IN FAHRENHEIT
WCI    - WIND CHILL INDEX IN FAHRENHEIT
TC     - TEMPERATURE IN CELSIUS WHICH IS ALSO KNOWN AS
         TEMPERATURE IN CENTIGRADE
AFB    - AIR FORCE BASE
         LUKE AFB IS LUKE AIR FORCE BASE
         DAVIS-MONTHAN IS DAVIS-MONTHAN AIR FORCE BASE
NAS    - NAVAL AIR STATION
         EL CENTRO NAS IS EL CENTRO NAVAL AIR STATION
N/A    - NOT AVAILABLE



USA.gov is the U.S. government's official web portal to all federal, state and local government web resources and services.